Preview of NWS' New Version of Forecast
This preview is not operational and should not be used for support decisions.

Regional Weather Roundup (RWR)

Issued by Gray - Portland, ME (GYX)

                            
000
ASUS41 KGYX 251010
RWRGYX
WEATHER ROUNDUP FOR MAINE AND NEW HAMPSHIRE
NATIONAL WEATHER SERVICE GRAY ME
600 AM EDT SUN AUG 25 2019

MEZ002-005-006-010-012-015-018-020-021-024-026-027-029-251100-
MAINE
  
CITY           SKY/WX    TMP DP  RH WIND       PRES   REMARKS
PORTLAND       FAIR      54  51  90 N6        30.35S                  
SANFORD        MOCLDY    56  54  93 N6        30.35R                  
BAR HARBOR     FAIR      48  47  96 VRB3      30.37S                  
WISCASSET      FAIR      50  48  93 CALM      30.37R                  
ROCKLAND       FAIR      54  50  86 NE5       30.36R                  
FRYEBURG       FAIR      47  46  97 CALM      30.38R                  
LEWISTONAUBURN CLOUDY    52  50  93 CALM      30.37R                  
AUGUSTA        FAIR      51  50  96 N6        30.38R                  
WATERVILLE     FAIR      49  49 100 NE3       30.36R FOG              
BANGOR         FAIR      51  49  92 CALM      30.38S                  
GREENVILLE       N/A     50  47  89 SE3       30.37R                  
MILLINOCKET    FAIR      46  44  93 CALM      30.40R                  
HOULTON        FAIR      42  40  92 CALM      30.39R                  
PRESQUE ISLE   FAIR      41  40  96 CALM      30.41R                  
FRENCHVILLE    FAIR      44  42  93 CALM      30.39R                  
CARIBOU        FAIR      45  43  93 CALM      30.39R                  
$$

NHZ002-005-008-009-011-012-014-251100-
NEW HAMPSHIRE
  
CITY           SKY/WX    TMP DP  RH WIND       PRES   REMARKS
PORTSMOUTH     PTCLDY    58  54  87 N7        30.31R                  
ROCHESTER      FAIR      56  53  90 N6        30.33R                  
NASHUA         FAIR      58  58 100 NW3       30.33R                  
MANCHESTER     FAIR      60  56  86 NE7       30.31R                  
CONCORD        FAIR      55  53  93 N3        30.33S                  
LACONIA        FAIR      55  54  96 CALM      30.35R                  
PLYMOUTH       FOG       49  49  97 CALM      30.36R VSB 1/4          
BERLIN         NOT AVBL                                               
WHITEFIELD     CLOUDY    40  38  93 CALM      30.37R                  
JAFFREY        CLOUDY    57  53  86 CALM      30.34R                  
KEENE          MOCLDY    52  52 100 CALM      30.33S                  
LEBANON        FAIR      52  48  86 CALM      30.34R FOG              
MT WASHINGTON  MOCLDY    39  36  87 SE18        N/A                   
$$

VTZ005-007-008-251100-
VERMONT
  
CITY           SKY/WX    TMP DP  RH WIND       PRES   REMARKS
ST JOHNSBURY     N/A     48  48 100 MISG      30.36R                  
MONTPELIER     FOG       51  51 100 CALM      30.39S VSB 1/4          
BURLINGTON     FAIR      53  51  93 NE3       30.34R                  
$$

MAZ007-012-024-CTZ003-RIZ002-NYZ038-NYZ072-251100-
SOUTHERN NEW ENGLAND AND NY
  
CITY           SKY/WX    TMP DP  RH WIND       PRES   REMARKS
BOSTON         FAIR      62  55  77 N9        30.29S                  
WORCESTER      CLOUDY    57  55  93 N8        30.31S                  
NANTUCKET      CLOUDY    64  60  87 NE10      30.22S                  
PROVIDENCE     FAIR      59  57  93 N9        30.28R                  
HARTFORD       MOCLDY    59  56  89 N6        30.29S                  
ALBANY         CLOUDY    61  55  81 N3        30.32R                  
NEW YORK CITY  FAIR      66  57  72 NE14      30.23S                  
$$

ANZ081-ANZ082-ANZ150-NHZ014-MEZ023>029-251100-
COASTAL MARINE OBSERVATIONS
  
STATION/POSITION TIME  TEMP    WIND        PRES    WAVE
                       AIR SEA DIR/SP/G            HT/PER
                 (UTC) (F)     (DEG/KT/KT) (MB)    (FT/S)
MATINICUS ROCK   0950   57                 1026.7R
ISLE OF SHOALS   0900   63      50/ 15/ 17 1025.5R
JEFFREYS LEDGE   0938      68                N/A     4/ 6
CASHES LEDGE BUO 0950   60 63   40/ 14/ 16 1026.2R   4/ 6
GEORGES BANK BUO 0950   65      20/  8/ 16 1021.9R
$$

.............KEY..............
   WCI - WIND CHILL
   TC  - TEMPERATURE IN CELSIUS
   VSB - VISIBILITY IN MILES
   HX  - HEAT INDEX
   FAIR- INDICATES FEW OR NO CLOUDS BELOW 12,000 FT, WITH NO 
         SIGNIFICANT WEATHER AND/OR OBSTRUCTIONS TO VISIBILITY.